Temperature
3 2 2 1 0 -1 -1 -2 -2 -3 -4 -5 -5 -6 -6 -7 -7 -8 -8 -9 -9 -9 -9 -9 -10 -10 -10 -10 -10 -10 -11 -11 -11 -11 -10 -10 -9 -9 -8 -8 -7 -7 -6
3 2 2 1 -0 -1 -1 -2 -3 -3 -4 -5 -5 -6 -6 -7 -7 -8 -8 -9 -9 -9 -9 -9 -9 -10 -10 -10 -10 -10 -11 -11 -11 -11 -10 -10 -10 -9 -9 -8 -8 -7 -6
3 2 1 1 -0 -1 -1 -2 -3 -3 -4 -4 -5 -6 -6 -7 -7 -8 -8 -8 -9 -9 -9 -9 -9 -10 -10 -10 -10 -10 -11 -11 -11 -11 -11 -10 -10 -10 -9 -9 -8 -7 -7
3 2 1 1 -0 -1 -1 -2 -3 -3 -4 -4 -5 -6 -6 -7 -7 -7 -8 -8 -9 -9 -9 -9 -9 -9 -10 -10 -10 -10 -10 -11 -11 -11 -11 -11 -11 -10 -10 -10 -8 -7 -6
3 2 2 1 -0 -1 -2 -2 -3 -3 -4 -4 -5 -5 -6 -7 -7 -7 -8 -9 -9 -9 -9 -9 -9 -9 -10 -10 -10 -10 -10 -11 -11 -11 -11 -11 -11 -11 -11 -11 -10 -9 -7
3 2 2 0 -0 -1 -2 -2 -3 -3 -4 -4 -5 -5 -6 -6 -7 -8 -9 -8 -9 -9 -9 -9 -9 -9 -9 -10 -10 -10 -10 -11 -11 -11 -11 -12 -11 -11 -11 -11 -11 -11 -9
3 2 1 0 -0 -1 -2 -2 -3 -3 -4 -4 -5 -5 -6 -6 -7 -8 -8 -8 -9 -9 -9 -9 -9 -9 -9 -10 -10 -10 -10 -11 -11 -11 -12 -12 -12 -12 -12 -11 -11 -11 -10
3 2 1 0 -0 -1 -2 -2 -3 -3 -4 -4 -5 -5 -6 -6 -7 -8 -8 -9 -9 -9 -9 -9 -9 -10 -9 -9 -10 -10 -10 -11 -11 -11 -12 -12 -12 -12 -12 -11 -11 -11 -9
3 2 1 0 -0 -1 -1 -2 -3 -3 -4 -4 -5 -5 -6 -6 -7 -7 -8 -9 -9 -9 -9 -9 -10 -10 -9 -9 -10 -10 -10 -11 -11 -11 -11 -12 -12 -11 -12 -11 -11 -11 -10
4 3 2 1 -0 -1 -1 -2 -3 -3 -4 -4 -5 -5 -6 -6 -7 -7 -9 -9 -9 -9 -9 -9 -10 -10 -10 -9 -10 -10 -11 -11 -11 -11 -11 -11 -11 -11 -11 -11 -11 -12 -11
5 3 1 0 -0 -1 -2 -2 -3 -3 -4 -4 -5 -5 -6 -6 -7 -7 -8 -9 -9 -9 -10 -10 -10 -10 -10 -10 -10 -11 -11 -11 -11 -12 -12 -11 -11 -11 -11 -11 -11 -12 -11
4 2 1 0 -0 -1 -2 -2 -3 -3 -4 -4 -5 -5 -6 -6 -7 -8 -8 -9 -9 -10 -10 -10 -10 -10 -10 -10 -11 -11 -11 -11 -12 -12 -12 -12 -12 -11 -11 -11 -11 -11 -11
3 2 1 0 -1 -1 -2 -2 -3 -3 -4 -4 -5 -5 -6 -6 -7 -8 -8 -9 -9 -10 -10 -10 -10 -10 -11 -11 -11 -11 -12 -12 -12 -12 -12 -12 -12 -12 -11 -11 -10 -10 -10
3 2 1 0 -1 -1 -2 -2 -3 -3 -4 -4 -5 -5 -6 -7 -7 -8 -8 -9 -10 -10 -10 -10 -10 -10 -11 -11 -11 -11 -12 -12 -12 -13 -12 -12 -12 -12 -11 -11 -11 -10 -9
3 2 1 0 -1 -1 -2 -2 -2 -3 -4 -4 -5 -6 -6 -7 -7 -8 -9 -9 -10 -10 -10 -10 -10 -10 -10 -11 -11 -11 -12 -12 -12 -12 -12 -12 -12 -12 -12 -11 -11 -11 -10
2 1 1 -0 -1 -1 -2 -2 -3 -3 -4 -5 -5 -6 -7 -7 -8 -9 -9 -10 -10 -10 -10 -10 -10 -11 -11 -11 -11 -12 -12 -12 -12 -13 -13 -13 -12 -12 -12 -11 -11 -11 -10
2 1 1 0 -1 -1 -2 -2 -3 -3 -4 -5 -5 -6 -7 -7 -8 -9 -9 -10 -10 -10 -10 -10 -11 -11 -11 -11 -12 -12 -12 -12 -12 -12 -13 -13 -12 -12 -12 -12 -11 -11 -10
2 1 0 0 -0 -1 -1 -2 -3 -3 -4 -5 -5 -6 -6 -7 -8 -9 -9 -9 -9 -10 -10 -11 -11 -11 -11 -11 -11 -12 -12 -12 -12 -12 -13 -12 -12 -12 -12 -12 -11 -11 -10
1 0 -0 -1 -1 -1 -2 -2 -3 -3 -4 -5 -5 -6 -6 -7 -8 -8 -9 -9 -9 -10 -10 -11 -11 -11 -11 -11 -12 -12 -12 -12 -12 -12 -12 -12 -12 -12 -12 -12 -11 -11 -10
0 -0 -1 -1 -1 -2 -2 -2 -3 -3 -4 -5 -5 -6 -6 -7 -7 -8 -9 -9 -10 -10 -10 -11 -11 -11 -11 -11 -11 -12 -12 -12 -12 -12 -12 -12 -12 -12 -12 -11 -11 -10 -10
-0 -1 -2 -2 -2 -2 -2 -2 -3 -3 -4 -5 -5 -6 -7 -7 -7 -8 -9 -9 -10 -10 -10 -11 -11 -11 -11 -11 -11 -12 -12 -12 -12 -12 -12 -12 -12 -12 -12 -11 -11 -10 -9
-1 -2 -2 -3 -2 -2 -2 -2 -3 -3 -4 -5 -5 -6 -7 -7 -8 -8 -9 -9 -9 -10 -10 -11 -11 -11 -11 -11 -11 -11 -12 -12 -12 -12 -12 -12 -12 -12 -11 -11 -11 -10 -9
-2 -3 -3 -3 -3 -3 -3 -3 -3 -3 -4 -5 -5 -6 -7 -7 -8 -8 -8 -9 -9 -10 -10 -11 -11 -11 -11 -11 -11 -11 -12 -12 -12 -12 -12 -12 -12 -12 -11 -11 -10 -10 -9
-3 -3 -3 -3 -3 -3 -3 -3 -3 -3 -4 -5 -5 -6 -6 -7 -8 -8 -9 -9 -9 -10 -10 -10 -11 -11 -11 -11 -11 -11 -11 -12 -12 -12 -12 -12 -12 -11 -11 -11 -10 -10 -9
-4 -4 -4 -4 -4 -3 -3 -3 -3 -3 -4 -5 -5 -6 -6 -7 -7 -8 -9 -9 -9 -10 -10 -10 -11 -11 -11 -11 -11 -11 -11 -12 -12 -12 -12 -12 -11 -11 -11 -11 -10 -10 -9
-4 -5 -4 -4 -4 -4 -3 -3 -3 -3 -4 -5 -5 -6 -6 -7 -7 -8 -8 -9 -9 -10 -10 -10 -11 -11 -11 -11 -11 -11 -11 -12 -12 -12 -12 -11 -11 -11 -11 -11 -10 -10 -9
Wind_Speed
14 12 11 10 9 9 8 9 8 7 8 7 8 8 8 9 8 8 9 10 10 11 11 10 12 11 9 9 9 9 9 9 12 13 10 10 10 11 11 12 14 13 14
13 12 11 10 9 9 9 9 7 8 8 8 8 8 9 10 9 9 11 11 10 12 12 12 13 11 11 10 9 10 9 8 9 14 12 10 10 10 10 11 11 11 11
13 12 11 10 10 10 9 8 8 8 8 8 8 9 10 10 10 10 11 11 12 12 13 13 14 12 13 12 11 10 9 9 8 10 12 9 8 9 10 11 11 8 11
13 13 13 12 11 10 9 8 8 8 8 8 9 9 10 10 10 11 11 12 12 13 13 13 13 13 14 14 12 11 9 9 8 9 10 9 8 8 8 10 11 9 10
14 14 14 12 10 9 9 8 8 8 9 8 8 9 9 9 9 11 11 12 12 12 12 12 13 16 19 16 13 10 8 7 8 8 9 10 9 9 8 7 11 11 11
16 15 13 11 10 10 9 8 8 8 8 8 8 9 10 10 16 21 17 9 10 10 11 11 12 15 18 21 22 19 14 10 8 7 8 9 10 9 9 10 10 10 7
16 14 13 12 12 11 10 8 9 8 8 8 9 9 10 12 19 20 21 12 8 9 10 10 11 12 16 11 16 18 16 18 16 9 7 9 9 9 9 10 9 10 10
16 15 14 13 12 10 9 9 9 7 7 8 8 9 9 12 18 19 20 10 7 8 9 10 11 12 13 14 10 9 9 10 12 9 8 9 9 9 9 8 9 10 10
17 17 15 14 13 11 11 11 8 7 8 8 7 8 9 11 16 18 18 7 7 9 9 9 10 11 19 20 9 7 7 8 11 14 15 14 16 16 13 7 7 8 9
19 17 15 14 13 13 12 10 7 7 8 7 7 7 8 9 14 16 17 6 7 8 7 8 14 16 19 17 6 5 8 8 7 8 10 12 10 11 14 6 6 7 6
15 13 13 14 13 12 10 8 7 7 7 7 7 7 8 9 12 15 16 7 7 7 7 7 8 18 18 16 11 6 10 8 4 6 7 7 7 6 6 6 6 6 7
13 14 14 13 12 10 9 9 7 7 7 7 7 7 6 7 9 12 15 15 13 7 7 7 9 17 16 15 11 12 14 11 5 6 6 6 7 7 7 7 8 8 9
15 15 13 13 12 10 10 9 7 7 6 6 6 6 6 5 7 13 15 16 16 9 7 12 15 16 14 10 12 14 10 5 5 6 7 7 6 7 8 7 8 8 9
16 15 13 13 12 11 9 8 8 7 7 7 6 6 6 5 6 6 7 8 10 9 7 9 12 13 10 10 10 8 5 6 6 6 6 6 6 7 7 7 7 7 7
16 15 14 13 12 11 10 9 9 8 8 7 7 6 5 6 8 11 8 5 5 5 5 3 4 6 6 5 5 5 5 5 6 6 6 6 7 7 8 7 6 6 6
16 15 13 11 11 10 9 8 13 12 13 14 12 9 7 9 12 12 12 12 12 11 6 4 5 5 6 6 6 6 6 6 6 6 6 6 7 7 8 8 7 7 7
17 15 13 12 11 11 10 9 7 8 12 12 11 11 9 9 10 10 10 10 9 8 3 4 5 5 6 6 6 6 6 6 6 6 6 6 7 7 8 8 8 8 8
16 17 15 12 12 11 10 9 8 7 6 5 7 9 8 8 8 8 7 6 4 4 3 4 5 5 6 6 6 6 6 6 5 5 5 6 6 7 7 8 8 9 8
16 13 12 11 11 10 10 9 8 8 6 5 3 4 6 5 5 5 4 1 3 3 4 4 5 5 6 6 6 6 6 6 6 5 5 6 6 6 7 8 8 12 10
15 20 17 12 11 10 10 9 9 8 7 6 5 5 3 2 2 2 2 2 3 3 4 5 5 5 5 5 6 6 5 5 5 5 5 5 6 6 7 8 8 8 8
12 16 22 14 11 11 11 10 9 8 7 7 6 6 6 4 4 3 3 3 3 4 4 5 5 5 5 5 5 6 6 6 5 5 5 5 6 6 6 7 8 8 8
11 12 13 12 11 11 11 10 9 9 8 8 5 5 8 4 3 3 3 3 3 3 4 4 4 5 5 5 5 6 6 6 5 4 5 5 5 6 6 7 7 7 8
11 12 12 11 11 14 13 10 9 9 8 7 6 6 5 4 4 4 4 3 3 3 4 4 4 5 5 5 5 5 5 5 5 4 4 4 5 5 6 7 8 8 8
13 13 13 13 12 11 11 11 10 9 9 8 7 6 6 5 4 4 3 3 3 3 4 4 4 5 7 6 5 5 5 5 4 3 3 3 4 5 5 6 7 8 7
12 13 13 12 12 12 11 11 10 10 9 8 7 7 6 5 5 4 3 3 3 3 4 4 3 4 7 8 7 6 7 7 5 3 1 2 4 5 5 6 6 7 6
12 13 12 11 11 11 11 11 11 10 9 8 7 7 6 6 5 4 3 3 2 3 3 3 4 6 7 7 7 6 7 7 6 5 2 1 3 4 5 5 6 6 6
Wind_Direction
197 199 202 203 207 212 220 230 236 241 246 250 255 260 264 266 264 265 267 270 270 275 277 278 280 281 283 285 284 280 279 280 288 297 299 302 301 304 309 309 299 292 291
197 196 202 204 205 214 225 233 234 241 246 250 255 262 267 270 266 265 271 276 270 273 276 276 278 282 280 282 281 279 280 279 283 297 305 307 305 306 306 307 309 305 298
193 196 201 205 208 218 226 231 234 241 248 254 255 262 267 269 270 268 267 270 269 269 270 272 274 276 278 280 278 276 276 285 281 289 299 300 298 305 310 309 306 295 301
194 197 204 209 211 216 222 228 234 240 248 255 258 262 266 269 270 271 270 269 268 268 268 268 270 271 272 276 277 271 274 279 281 286 294 302 302 304 305 313 316 313 310
195 202 209 208 207 212 220 228 235 241 251 254 262 268 270 272 271 268 266 266 264 268 271 271 272 279 284 285 285 277 273 272 281 289 295 302 306 313 313 308 310 313 308
198 205 205 201 205 212 219 226 234 243 252 257 262 267 272 278 289 295 294 275 270 274 279 279 279 284 289 295 296 296 294 287 284 281 289 295 296 297 299 302 307 313 311
200 203 200 201 207 213 219 224 233 242 249 256 262 265 269 278 293 298 300 299 279 281 282 285 290 289 297 288 286 291 293 295 297 293 283 280 284 287 290 294 296 296 289
200 202 201 201 209 210 214 226 234 237 244 253 260 265 271 282 297 302 305 305 286 282 279 279 281 283 287 288 275 272 270 278 285 289 270 268 274 277 275 283 291 293 286
202 204 202 201 205 207 216 225 229 233 244 249 256 263 270 283 299 304 307 291 286 286 281 281 286 281 292 301 297 284 283 280 292 297 298 298 300 303 303 305 305 304 303
206 204 199 198 202 208 215 221 222 228 243 251 259 260 265 274 293 305 310 292 290 291 285 284 298 302 305 313 301 280 285 283 288 297 301 304 301 301 307 302 286 291 295
199 194 194 197 202 207 210 214 219 230 242 250 260 265 265 272 292 305 309 306 294 296 298 294 295 309 316 321 323 300 299 313 295 290 291 293 294 290 289 283 268 261 268
184 190 195 197 200 204 206 212 215 222 238 251 260 272 264 269 287 298 308 312 313 303 299 295 297 313 323 326 324 319 324 331 314 307 306 304 304 301 295 288 278 266 256
184 193 195 195 198 199 201 208 213 217 230 247 251 266 274 268 278 299 307 313 316 314 299 310 319 326 330 328 323 327 335 326 309 309 308 305 300 293 295 296 291 282 275
189 193 192 194 198 200 203 206 211 216 224 237 246 256 267 272 274 280 281 292 302 306 304 314 324 329 328 324 325 326 319 306 311 303 302 302 304 305 303 304 304 307 302
191 193 192 195 197 200 205 208 211 215 215 222 230 236 248 264 276 296 305 293 295 298 316 315 317 321 324 319 317 312 307 311 314 308 304 308 311 313 311 310 303 306 299
191 194 194 194 195 197 201 213 226 225 236 242 244 245 249 266 289 304 312 318 324 329 337 321 318 318 320 319 318 315 312 312 309 306 306 308 311 313 312 312 311 308 306
194 192 191 192 193 195 197 202 212 226 235 240 247 256 262 277 292 304 312 322 328 336 330 306 306 309 311 311 309 306 305 306 306 305 306 308 310 312 314 315 317 316 310
196 194 191 191 191 192 194 197 199 201 212 230 241 252 263 275 290 303 315 330 326 331 298 294 299 303 306 306 307 307 306 307 308 308 306 308 309 313 316 317 316 316 313
195 194 191 188 190 190 190 190 194 199 206 212 218 247 255 267 280 296 318 307 289 299 301 299 298 300 303 304 307 306 304 304 306 308 308 308 309 312 314 315 315 318 320
198 197 189 186 186 187 188 190 193 196 201 207 217 222 217 215 234 266 270 262 271 282 291 296 298 299 302 301 305 306 305 304 305 306 306 307 308 309 312 314 317 318 316
194 196 194 189 188 188 189 191 191 191 197 206 214 217 207 195 219 238 248 256 261 272 284 291 295 298 299 298 301 304 304 304 303 304 309 309 310 312 313 315 317 318 318
191 191 190 189 188 189 191 190 188 190 195 201 206 216 218 199 209 228 240 252 257 261 270 281 288 289 291 296 301 304 306 307 305 305 309 310 311 314 319 323 326 328 328
187 188 189 188 187 192 192 190 189 190 193 195 196 198 202 201 210 222 234 245 256 266 275 282 288 295 299 298 294 294 297 303 300 296 307 314 317 320 324 325 328 330 333
188 189 190 188 187 190 190 190 191 191 190 190 193 195 197 201 208 218 225 237 253 268 277 283 284 293 302 309 304 297 290 294 290 292 300 312 318 321 325 329 331 335 339
188 190 191 190 189 190 190 189 190 189 188 189 190 192 193 195 202 211 216 228 251 271 282 288 288 295 303 311 311 306 316 328 333 337 308 320 320 322 326 330 337 341 348
189 192 192 190 190 190 190 189 189 188 187 187 186 185 187 191 197 202 206 218 249 272 283 291 289 295 303 307 311 321 336 345 351 356 27 332 330 331 336 340 342 351 356
Height
1493 1494 1494 1495 1495 1494 1493 1492 1490 1488 1486 1483 1480 1477 1474 1471 1468 1464 1460 1457 1453 1449 1445 1441 1436 1432 1427 1422 1418 1413 1409 1404 1396 1388 1383 1378 1374 1369 1365 1361 1358 1356 1354
1486 1487 1487 1488 1488 1488 1487 1486 1484 1482 1480 1477 1474 1471 1468 1465 1461 1458 1454 1451 1447 1443 1439 1434 1430 1425 1421 1416 1411 1407 1403 1398 1393 1385 1378 1374 1369 1365 1360 1356 1353 1350 1348
1478 1479 1480 1481 1481 1481 1480 1480 1478 1476 1474 1471 1469 1465 1462 1459 1455 1452 1448 1444 1440 1437 1432 1428 1423 1419 1413 1409 1405 1400 1396 1392 1387 1382 1374 1369 1365 1360 1355 1351 1348 1345 1342
1470 1471 1472 1473 1474 1474 1474 1473 1472 1470 1468 1465 1463 1460 1456 1453 1449 1445 1442 1438 1434 1430 1426 1422 1417 1412 1407 1402 1398 1394 1389 1385 1381 1376 1371 1365 1360 1356 1352 1347 1342 1339 1336
1462 1463 1464 1466 1467 1467 1467 1467 1465 1464 1462 1459 1457 1454 1450 1447 1443 1439 1435 1432 1428 1423 1419 1415 1410 1406 1401 1397 1392 1387 1383 1379 1375 1371 1366 1361 1356 1352 1348 1343 1339 1333 1330
1453 1454 1457 1459 1459 1460 1460 1460 1459 1458 1456 1453 1451 1447 1444 1440 1437 1433 1430 1426 1422 1417 1413 1408 1404 1399 1394 1390 1386 1383 1379 1375 1370 1366 1361 1357 1352 1349 1345 1341 1336 1331 1326
1444 1446 1449 1450 1451 1453 1453 1453 1452 1451 1450 1447 1445 1441 1438 1434 1431 1427 1424 1421 1416 1411 1407 1402 1397 1393 1388 1383 1379 1375 1372 1369 1366 1362 1357 1352 1348 1345 1341 1336 1333 1328 1324
1436 1438 1440 1442 1444 1446 1446 1446 1446 1445 1443 1441 1438 1435 1432 1429 1425 1421 1418 1415 1410 1406 1401 1396 1391 1386 1382 1377 1372 1368 1365 1362 1359 1355 1352 1347 1344 1340 1337 1333 1329 1324 1319
1426 1429 1432 1434 1436 1438 1439 1439 1439 1438 1437 1435 1432 1429 1426 1423 1419 1416 1412 1408 1403 1399 1395 1391 1386 1381 1377 1373 1368 1363 1360 1357 1353 1350 1347 1342 1339 1335 1332 1328 1324 1320 1315
1417 1420 1424 1426 1429 1430 1432 1433 1433 1432 1430 1429 1426 1424 1420 1417 1414 1410 1407 1402 1398 1393 1389 1385 1381 1376 1372 1368 1363 1359 1355 1351 1347 1343 1340 1336 1333 1329 1326 1323 1320 1316 1313
1411 1414 1417 1419 1421 1423 1425 1426 1426 1425 1424 1423 1421 1418 1415 1412 1408 1405 1401 1398 1393 1388 1384 1379 1375 1371 1368 1363 1359 1355 1351 1347 1342 1338 1334 1330 1327 1324 1321 1318 1315 1312 1309
1403 1406 1409 1412 1414 1416 1418 1419 1419 1419 1418 1416 1415 1413 1410 1407 1403 1399 1396 1393 1389 1385 1379 1375 1371 1367 1363 1359 1355 1351 1347 1343 1338 1334 1330 1326 1322 1318 1315 1313 1310 1307 1304
1394 1397 1400 1404 1406 1409 1410 1412 1412 1412 1412 1410 1409 1406 1404 1402 1398 1395 1391 1388 1384 1380 1375 1371 1367 1363 1358 1354 1351 1347 1343 1339 1335 1331 1326 1322 1318 1315 1311 1307 1304 1301 1299
1385 1388 1392 1395 1398 1401 1403 1404 1405 1406 1405 1404 1403 1401 1399 1396 1393 1390 1386 1383 1379 1375 1371 1367 1363 1359 1355 1351 1347 1343 1339 1336 1332 1328 1324 1320 1315 1311 1307 1304 1300 1296 1293
1376 1380 1383 1386 1390 1393 1395 1397 1398 1399 1399 1398 1397 1395 1393 1391 1388 1386 1383 1379 1375 1371 1367 1363 1359 1355 1351 1347 1344 1340 1337 1333 1329 1325 1321 1317 1313 1308 1304 1301 1297 1294 1290
1366 1370 1374 1377 1381 1384 1387 1389 1391 1392 1393 1392 1391 1390 1388 1386 1384 1381 1378 1375 1371 1367 1363 1359 1355 1352 1348 1345 1341 1337 1334 1330 1327 1323 1319 1315 1311 1306 1302 1298 1294 1291 1287
1356 1360 1364 1368 1372 1376 1379 1382 1384 1386 1386 1386 1386 1385 1383 1381 1379 1376 1373 1370 1366 1363 1360 1356 1353 1349 1346 1342 1339 1335 1332 1328 1325 1321 1317 1313 1309 1305 1301 1296 1292 1289 1285
1348 1352 1356 1360 1364 1368 1371 1375 1377 1379 1380 1380 1381 1380 1378 1377 1374 1372 1369 1366 1362 1359 1356 1353 1350 1347 1344 1340 1337 1333 1329 1326 1322 1319 1315 1311 1307 1303 1299 1295 1291 1287 1284
1339 1343 1347 1352 1357 1361 1364 1368 1370 1372 1374 1375 1375 1374 1373 1372 1370 1368 1365 1362 1359 1356 1353 1350 1347 1344 1341 1338 1335 1331 1328 1324 1321 1317 1314 1310 1306 1302 1298 1294 1290 1287 1283
1329 1334 1339 1344 1348 1353 1356 1360 1363 1365 1367 1368 1369 1369 1368 1367 1365 1363 1361 1358 1356 1353 1350 1348 1345 1342 1339 1336 1333 1329 1326 1323 1319 1316 1312 1309 1305 1302 1298 1294 1290 1286 1282
1321 1326 1331 1335 1340 1344 1349 1352 1356 1359 1361 1362 1363 1364 1364 1362 1361 1359 1357 1355 1353 1350 1348 1345 1343 1340 1337 1334 1331 1328 1325 1321 1318 1315 1312 1308 1305 1301 1297 1293 1290 1286 1283
1315 1318 1323 1327 1332 1337 1342 1346 1349 1352 1355 1357 1358 1359 1359 1358 1357 1356 1354 1352 1350 1347 1345 1343 1340 1338 1335 1332 1329 1326 1323 1320 1317 1314 1311 1308 1305 1301 1297 1293 1290 1287 1283
1308 1312 1316 1321 1326 1331 1335 1339 1343 1346 1349 1351 1353 1354 1354 1353 1353 1352 1351 1349 1347 1345 1343 1340 1338 1336 1333 1331 1328 1325 1322 1319 1316 1314 1311 1308 1305 1301 1298 1294 1291 1288 1285
1301 1305 1310 1314 1320 1324 1329 1333 1337 1340 1343 1346 1347 1349 1349 1349 1349 1348 1347 1346 1344 1342 1340 1338 1336 1334 1332 1329 1327 1324 1321 1319 1316 1313 1311 1308 1305 1302 1299 1296 1293 1290 1287
1295 1299 1304 1308 1313 1318 1323 1327 1331 1335 1338 1340 1342 1344 1345 1345 1345 1345 1344 1343 1341 1340 1338 1336 1334 1332 1330 1328 1325 1323 1321 1318 1316 1314 1311 1309 1306 1304 1301 1298 1296 1293 1291
1289 1293 1298 1303 1308 1312 1317 1321 1325 1329 1332 1335 1337 1339 1341 1341 1342 1342 1341 1340 1339 1337 1336 1334 1332 1331 1329 1327 1325 1323 1321 1318 1316 1314 1312 1310 1308 1305 1303 1301 1298 1296 1294